Weather History for Thief River Falls, MN

Change the Weather History Date:

Saturday, March 30, 2013

  Actual Average Record
Temperature  
Mean Temperature 32 °F -  
Max Temperature 35 °F 38 °F 60 °F (1990)
Min Temperature 28 °F 23 °F -16 °F (1975)
Degree Days  
Heating Degree Days 34    
Moisture  
Dew Point 27 °F    
Average Humidity 81    
Maximum Humidity 93    
Minimum Humidity 70    
Precipitation  
Precipitation 0.00 in - - ()
Sea Level Pressure  
Sea Level Pressure 29.91 in    
Wind  
Wind Speed 4 mph (WNW)    
Max Wind Speed 13 mph    
Max Gust Speed -    
Visibility 7 miles    
Events      
Averages and records for this station are not official NWS values.
T = Trace of Precipitation, MM = Missing Value Source: NWS Daily Summary

Daily Weather History Graph

Daily Weather History Graph

Search for Another Location

Airport:

Trip Planner

Search our weather history database for the weather conditions in past years. The results will help you decide how hot, cold, wet, or windy it might be!

Date:

Astronomy

Mar. 30, 2013 Rise Set
Actual Time 7:06 AM CDT 7:52 PM CDT
Civil Twilight 6:35 AM CDT 8:23 PM CDT
Nautical Twilight 5:57 AM CDT 9:01 PM CDT
Astronomical Twilight 5:18 AM CDT 9:40 PM CDT
Moon No Moon Rise 8:45 AM CDT (3/30)
Length of Visible Light 13h 48m
Length of Day
12h 46m
Waning Gibbous, 86% of the Moon is Illuminated
Mar 30
Waning Gibbous
Apr 2
Last Quarter
Apr 10
New
Apr 18
First Quarter
Apr 25
Full

Hourly Weather History & Observations

Time (CDT) Temp. Windchill Dew Point Humidity Pressure Visibility Wind Dir Wind Speed Gust Speed Precip Events Conditions
12:15 AM 30.2 °F - 26.6 °F 86% 29.98 in 6.0 mi Calm Calm - N/A   Scattered Clouds
12:35 AM 30.2 °F - 26.6 °F 86% 29.97 in 4.0 mi Calm Calm - N/A   Mostly Cloudy
12:55 AM 30.2 °F - 26.6 °F 86% 29.97 in 5.0 mi Calm Calm - N/A   Overcast
1:15 AM 28.4 °F 24.6 °F 26.6 °F 93% 29.97 in 5.0 mi NNW 3.5 mph - N/A   Mostly Cloudy
1:35 AM 28.4 °F - 26.6 °F 93% 29.96 in 5.0 mi Calm Calm - N/A   Mostly Cloudy
1:55 AM 28.4 °F - 26.6 °F 93% 29.95 in 4.0 mi Calm Calm - N/A   Overcast
2:15 AM 28.4 °F - 26.6 °F 93% 29.94 in 3.0 mi Calm Calm - N/A   Overcast
2:35 AM 30.2 °F - 28.4 °F 93% 29.93 in 5.0 mi Calm Calm - N/A   Overcast
2:55 AM 30.2 °F - 28.4 °F 93% 29.93 in 5.0 mi Calm Calm - N/A   Overcast
3:15 AM 30.2 °F - 28.4 °F 93% 29.93 in 5.0 mi Calm Calm - N/A   Overcast
3:35 AM 30.2 °F - 26.6 °F 86% 29.92 in 5.0 mi Calm Calm - N/A   Overcast
3:55 AM 30.2 °F - 26.6 °F 86% 29.92 in 4.0 mi Calm Calm - N/A   Overcast
4:15 AM 30.2 °F - 26.6 °F 86% 29.91 in 5.0 mi Calm Calm - N/A   Overcast
4:35 AM 30.2 °F - 26.6 °F 86% 29.91 in 4.0 mi Calm Calm - N/A   Overcast
4:55 AM 30.2 °F - 28.4 °F 93% 29.91 in 3.0 mi Calm Calm - N/A   Overcast
5:15 AM 30.2 °F - 28.4 °F 93% 29.91 in 4.0 mi Calm Calm - N/A   Overcast
5:35 AM 30.2 °F - 28.4 °F 93% 29.90 in 4.0 mi Calm Calm - N/A   Overcast
5:55 AM 30.2 °F - 26.6 °F 86% 29.90 in 3.0 mi Calm Calm - N/A   Overcast
6:15 AM 30.2 °F 24.3 °F 26.6 °F 86% 29.91 in 4.0 mi West 5.8 mph - N/A   Overcast
6:35 AM 30.2 °F 25.4 °F 26.6 °F 86% 29.91 in 3.0 mi West 4.6 mph - N/A   Overcast
6:55 AM 30.2 °F 24.3 °F 26.6 °F 86% 29.90 in 3.0 mi WNW 5.8 mph - N/A   Overcast
7:15 AM 30.2 °F 21.3 °F 26.6 °F 86% 29.92 in 1.8 mi NW 10.4 mph - N/A   Overcast
7:35 AM 30.2 °F 22.6 °F 26.6 °F 86% 29.92 in 1.8 mi NW 8.1 mph - N/A   Overcast
7:55 AM 30.2 °F 24.3 °F 26.6 °F 86% 29.91 in 2.0 mi NW 5.8 mph - N/A   Overcast
8:15 AM 30.2 °F 21.9 °F 26.6 °F 86% 29.92 in 2.0 mi NW 9.2 mph - N/A   Mostly Cloudy
8:35 AM 28.4 °F 24.6 °F 26.6 °F 93% 29.92 in 2.0 mi NW 3.5 mph - N/A   Clear
8:55 AM 30.2 °F - 26.6 °F 86% 29.91 in 2.5 mi Calm Calm - N/A   Clear
9:15 AM 32.0 °F - 26.6 °F 80% 29.92 in 2.5 mi Calm Calm - N/A   Clear
9:35 AM 32.0 °F - 26.6 °F 80% 29.92 in 3.0 mi Calm Calm - N/A   Clear
9:55 AM 33.8 °F 27.7 °F 28.4 °F 81% 29.92 in 4.0 mi West 6.9 mph - N/A   Clear
10:15 AM 33.8 °F 27.7 °F 28.4 °F 81% 29.91 in 5.0 mi West 6.9 mph - N/A   Clear
10:35 AM 33.8 °F 25.3 °F 28.4 °F 81% 29.91 in 7.0 mi WNW 11.5 mph - N/A   Clear
10:55 AM 33.8 °F 24.8 °F 28.4 °F 81% 29.91 in 6.0 mi NW 12.7 mph - N/A   Clear
11:15 AM 33.8 °F 25.8 °F 28.4 °F 81% 29.92 in 6.0 mi WNW 10.4 mph - N/A   Clear
11:35 AM 33.8 °F 25.3 °F 26.6 °F 75% 29.92 in 7.0 mi WNW 11.5 mph - N/A   Clear
11:55 AM 33.8 °F 25.8 °F 26.6 °F 75% 29.92 in 6.0 mi West 10.4 mph - N/A   Clear
12:15 PM 32.0 °F 24.2 °F 26.6 °F 80% 29.92 in 6.0 mi WNW 9.2 mph - N/A   Clear
12:35 PM 33.8 °F 25.8 °F 26.6 °F 75% 29.92 in 7.0 mi WNW 10.4 mph - N/A   Clear
12:55 PM 33.8 °F 25.8 °F 26.6 °F 75% 29.92 in 9.0 mi WNW 10.4 mph - N/A   Partly Cloudy
1:15 PM 35.6 °F 28.0 °F 26.6 °F 70% 29.92 in 10.0 mi WNW 10.4 mph - N/A   Clear
1:35 PM 35.6 °F 28.6 °F 26.6 °F 70% 29.92 in 10.0 mi WNW 9.2 mph - N/A   Clear
1:55 PM 35.6 °F 29.2 °F 26.6 °F 70% 29.92 in 10.0 mi West 8.1 mph - N/A   Clear
2:15 PM 35.6 °F 29.9 °F 26.6 °F 70% 29.91 in 10.0 mi West 6.9 mph - N/A   Clear
2:35 PM 35.6 °F 28.6 °F 26.6 °F 70% 29.91 in 10.0 mi West 9.2 mph - N/A   Clear
2:55 PM 35.6 °F 28.6 °F 26.6 °F 70% 29.92 in 10.0 mi West 9.2 mph - N/A   Clear
3:15 PM 35.6 °F 28.0 °F 26.6 °F 70% 29.92 in 10.0 mi West 10.4 mph - N/A   Clear
3:35 PM 35.6 °F 28.0 °F 26.6 °F 70% 29.92 in 10.0 mi West 10.4 mph - N/A   Clear
3:55 PM 33.8 °F 26.4 °F 26.6 °F 75% 29.92 in 10.0 mi West 9.2 mph - N/A   Clear
4:15 PM 35.6 °F 27.5 °F 26.6 °F 70% 29.91 in 10.0 mi West 11.5 mph - N/A   Clear
4:35 PM 35.6 °F 28.0 °F 26.6 °F 70% 29.91 in 10.0 mi West 10.4 mph - N/A   Clear
4:55 PM 35.6 °F 28.6 °F 26.6 °F 70% 29.91 in 10.0 mi West 9.2 mph - N/A   Clear
5:15 PM 33.8 °F 27.0 °F 26.6 °F 75% 29.90 in 10.0 mi West 8.1 mph - N/A   Clear
5:35 PM 33.8 °F 25.8 °F 26.6 °F 75% 29.90 in 10.0 mi West 10.4 mph - N/A   Clear
5:55 PM 33.8 °F 25.8 °F 26.6 °F 75% 29.90 in 10.0 mi West 10.4 mph - N/A   Clear
6:15 PM 33.8 °F 24.8 °F 26.6 °F 75% 29.90 in 10.0 mi West 12.7 mph - N/A   Clear
6:35 PM 33.8 °F 25.8 °F 26.6 °F 75% 29.90 in 10.0 mi West 10.4 mph - N/A   Clear
6:55 PM 33.8 °F 25.3 °F 26.6 °F 75% 29.89 in 10.0 mi West 11.5 mph - N/A   Clear
7:15 PM 30.2 °F 21.3 °F 26.6 °F 86% 29.89 in 10.0 mi WNW 10.4 mph - N/A   Clear
7:35 PM 30.2 °F 21.3 °F 26.6 °F 86% 29.89 in 10.0 mi WNW 10.4 mph - N/A   Clear
7:55 PM 30.2 °F 21.9 °F 26.6 °F 86% 29.88 in 10.0 mi West 9.2 mph - N/A   Clear
8:15 PM 30.2 °F 21.3 °F 24.8 °F 80% 29.88 in 10.0 mi West 10.4 mph - N/A   Scattered Clouds
8:35 PM 30.2 °F 21.9 °F 24.8 °F 80% 29.88 in 10.0 mi West 9.2 mph - N/A   Partly Cloudy
8:55 PM 30.2 °F 21.3 °F 24.8 °F 80% 29.88 in 10.0 mi WNW 10.4 mph - N/A   Scattered Clouds
9:15 PM 30.2 °F 21.9 °F 26.6 °F 86% 29.88 in 10.0 mi WNW 9.2 mph - N/A   Overcast
9:35 PM 30.2 °F 21.9 °F 26.6 °F 86% 29.88 in 10.0 mi WNW 9.2 mph - N/A   Overcast
9:55 PM 32.0 °F 24.2 °F 24.8 °F 75% 29.87 in 10.0 mi WNW 9.2 mph - N/A   Overcast
10:15 PM 32.0 °F 24.8 °F 24.8 °F 75% 29.87 in 10.0 mi WNW 8.1 mph - N/A   Overcast
10:35 PM 32.0 °F 27.5 °F 24.8 °F 75% 29.86 in 10.0 mi West 4.6 mph - N/A   Overcast
10:55 PM 32.0 °F 26.4 °F 24.8 °F 75% 29.86 in 10.0 mi West 5.8 mph - N/A   Overcast
11:15 PM 32.0 °F 25.6 °F 24.8 °F 75% 29.85 in 10.0 mi West 6.9 mph - N/A   Overcast
11:35 PM 32.0 °F 25.6 °F 24.8 °F 75% 29.85 in 10.0 mi West 6.9 mph - N/A   Overcast
11:55 PM 32.0 °F 25.6 °F 24.8 °F 75% 29.84 in 10.0 mi West 6.9 mph - N/A   Overcast